This demonstration page uses our WeatherBlox Daily Observations layout. Learn more.

Left ArrowRight Arrow

Hourly Observations for December 9, 2022

Temp ( °F °C ) Dew Point ( °F °C ) Humidity (%) Winds ( mph kmh ) Pressure ( in mb ) Visibility ( mi km ) Precip ( " mm )
12:53 am 00:53 Clear 3 -16.1 -2 -18.9 79 79 E 7 11 29.98 1015 10 16 0.00 0.00
1:53 am 01:53 Clear 2 -16.7 -2 -18.9 83 83 E 7 11 29.96 1015 10 16 0.00 0.00
2:53 am 02:53 Clear 2 -16.7 -3 -19.4 79 79 E 6 9 29.95 1014 10 16 0.00 0.00
3:53 am 03:53 Clear 2 -16.7 -1 -18.3 87 87 E 6 9 29.94 1014 10 16 0.00 0.00
4:53 am 04:53 Clear 0 -17.8 -4 -20 83 83 Calm 29.92 1013 10 16 0.00 0.00
5:53 am 05:53 Clear 1 -17.2 -3 -19.4 83 83 N 8 13 29.92 1013 10 16 0.00 0.00
6:53 am 06:53 Mostly Cloudy 11 -11.7 6 -14.4 80 80 S 3 6 29.92 1013 10 16 0.00 0.00
7:53 am 07:53 Mostly Clear 16 -8.9 9 -12.8 73 73 SSW 8 13 29.90 1013 10 16 0.00 0.00
8:53 am 08:53 Mostly Cloudy 19 -7.2 12 -11.1 74 74 WSW 6 9 29.89 1012 10 16 0.00 0.00
9:53 am 09:53 Sunny 27 -2.8 18 -7.8 68 68 SW 9 15 29.88 1012 10 16 0.00 0.00
10:53 am 10:53 Sunny 29 -1.7 19 -7.2 66 66 SW 13 20 29.88 1012 10 16 0.00 0.00
11:53 am 11:53 Sunny 30 -1.1 21 -6.1 69 69 SW 10 17 29.88 1012 10 16 0.00 0.00
12:53 pm 12:53 Sunny 30 -1.1 20 -6.7 66 66 W 6 9 29.87 1012 10 16 0.00 0.00
1:53 pm 13:53 Sunny 30 -1.1 22 -5.6 71 71 SW 16 26 29.88 1012 10 16 0.00 0.00
2:53 pm 14:53 Sunny 30 -1.1 22 -5.6 71 71 WSW 9 15 29.91 1013 10 16 0.00 0.00
3:53 pm 15:53 Sunny 26 -3.3 19 -7.2 74 74 SW 10 17 29.94 1014 10 16 0.00 0.00
4:53 pm 16:53 Cloudy 28 -2.2 21 -6.1 75 75 SW 9 15 29.96 1015 10 16 0.00 0.00
5:53 pm 17:53 Cloudy 28 -2.2 20 -6.7 71 71 SW 14 22 29.98 1015 10 16 0.00 0.00
6:53 pm 18:53 Clear 25 -3.9 17 -8.3 71 71 SSW 14 22 29.99 1016 10 16 0.00 0.00
7:53 pm 19:53 Clear 26 -3.3 17 -8.3 68 68 SW 18 30 30.00 1016 10 16 0.00 0.00
8:53 pm 20:53 Clear 22 -5.6 15 -9.4 74 74 SW 14 22 30.01 1016 10 16 0.00 0.00
9:53 pm 21:53 Clear 15 -9.4 11 -11.7 83 83 W 7 11 30.02 1017 10 16 0.00 0.00
10:53 pm 22:53 Clear 12 -11.1 8 -13.3 84 84 SW 14 22 30.03 1017 10 16 0.00 0.00
11:53 pm 23:53 Clear 8 -13.3 4 -15.6 83 83 SW 9 15 30.04 1017 10 16 0.00 0.00

Powered by AerisWeather